DLH1626 EDDM-EPKK

Flight info

Callsign DLH1626
Flight time 0h 55m
Altitude 33000
Route BIBAG2E BIBAG Y133 BEPAS DCT NELPA DCT PADKA
Aircraft A320/M-SDE2E3FGIJ1LORWXYZ/HB1

Departure

Time 2026-05-06 08:02
Airport Munich Airport (EDDM)

Arrival

Time 2026-05-06 08:57
Airport Kraków John Paul II International Airport (EPKK)
Time Latitude Longitude Altitude Speed Heading
2026-05-06 07:49 48.35394 11.80379 1469 ft 0 kts 263°
2026-05-06 07:51 48.35395 11.80389 1485 ft 3 kts 262°
2026-05-06 07:51 48.35397 11.80417 1482 ft 3 kts 262°
2026-05-06 07:51 48.35399 11.80438 1475 ft 3 kts 262°
2026-05-06 07:52 48.35400 11.80440 1475 ft 0 kts 262°
2026-05-06 07:54 48.35419 11.80352 1485 ft 15 kts 268°
2026-05-06 07:54 48.35412 11.80226 1476 ft 10 kts 264°
2026-05-06 07:54 48.35389 11.80138 1483 ft 9 kts 216°
2026-05-06 07:54 48.35322 11.80132 1485 ft 11 kts 176°
2026-05-06 07:55 48.35244 11.80145 1483 ft 10 kts 172°
2026-05-06 07:55 48.35205 11.80152 1485 ft 10 kts 174°
2026-05-06 07:55 48.35125 11.80161 1479 ft 10 kts 187°
2026-05-06 07:55 48.35099 11.80066 1485 ft 10 kts 265°
2026-05-06 07:56 48.35089 11.79926 1482 ft 14 kts 263°
2026-05-06 07:56 48.35077 11.79780 1483 ft 14 kts 263°
2026-05-06 07:56 48.35042 11.79671 1483 ft 12 kts 200°
2026-05-06 07:56 48.34947 11.79678 1483 ft 16 kts 173°
2026-05-06 07:57 48.34833 11.79698 1485 ft 17 kts 173°
2026-05-06 07:57 48.34712 11.79704 1485 ft 16 kts 206°
2026-05-06 07:57 48.34682 11.79552 1485 ft 16 kts 263°
2026-05-06 07:57 48.34669 11.79388 1485 ft 16 kts 263°
2026-05-06 07:58 48.34656 11.79217 1485 ft 17 kts 263°
2026-05-06 07:58 48.34642 11.79034 1483 ft 18 kts 263°
2026-05-06 07:58 48.34626 11.78835 1479 ft 20 kts 263°
2026-05-06 07:58 48.34611 11.78624 1481 ft 22 kts 264°
2026-05-06 07:59 48.34593 11.78393 1481 ft 23 kts 263°
2026-05-06 07:59 48.34574 11.78146 1485 ft 24 kts 263°
2026-05-06 07:59 48.34553 11.77885 1485 ft 26 kts 264°
2026-05-06 07:59 48.34533 11.77614 1485 ft 27 kts 263°
2026-05-06 08:00 48.34511 11.77327 1476 ft 28 kts 264°
2026-05-06 08:00 48.34488 11.77029 1481 ft 29 kts 263°
2026-05-06 08:00 48.34472 11.76833 1485 ft 16 kts 262°
2026-05-06 08:00 48.34405 11.76766 1479 ft 15 kts 142°
2026-05-06 08:01 48.34370 11.76873 1482 ft 9 kts 113°
2026-05-06 08:01 48.34346 11.76956 1477 ft 8 kts 113°
2026-05-06 08:01 48.34310 11.77079 1485 ft 19 kts 114°
2026-05-06 08:01 48.34248 11.77327 1480 ft 40 kts 98°
2026-05-06 08:02 48.34300 11.78112 1481 ft 109 kts 83°
2026-05-06 08:02 48.34412 11.79537 1528 ft 158 kts 84°
2026-05-06 08:02 48.34548 11.81207 2152 ft 161 kts 83°
2026-05-06 08:02 48.34677 11.82876 2855 ft 163 kts 83°
2026-05-06 08:03 48.34807 11.84665 3203 ft 183 kts 83°
2026-05-06 08:03 48.34955 11.86689 3508 ft 206 kts 83°
2026-05-06 08:03 48.35126 11.88963 3840 ft 231 kts 83°
2026-05-06 08:03 48.35317 11.91437 4499 ft 243 kts 84°
2026-05-06 08:04 48.35204 11.93983 5299 ft 250 kts 107°
2026-05-06 08:04 48.34535 11.96493 5910 ft 265 kts 115°
2026-05-06 08:04 48.33778 11.99046 6793 ft 269 kts 116°
2026-05-06 08:04 48.33001 12.01625 7676 ft 273 kts 116°
2026-05-06 08:05 48.32211 12.04252 8540 ft 278 kts 116°
2026-05-06 08:05 48.31411 12.06923 9403 ft 283 kts 117°
2026-05-06 08:05 48.30749 12.09736 10116 ft 295 kts 103°
2026-05-06 08:05 48.30846 12.12942 10400 ft 325 kts 75°
2026-05-06 08:06 48.31945 12.16009 10900 ft 342 kts 57°
2026-05-06 08:06 48.33289 12.19000 11604 ft 348 kts 58°
2026-05-06 08:06 48.34659 12.22077 12100 ft 362 kts 58°
2026-05-06 08:06 48.36073 12.25279 12718 ft 371 kts 58°
2026-05-06 08:07 48.37504 12.28532 13414 ft 376 kts 58°
2026-05-06 08:07 48.38955 12.31841 14065 ft 382 kts 58°
2026-05-06 08:07 48.40422 12.35202 14705 ft 386 kts 58°
2026-05-06 08:07 48.41900 12.38596 15354 ft 390 kts 58°
2026-05-06 08:08 48.43394 12.42037 15999 ft 394 kts 58°
2026-05-06 08:08 48.44881 12.45473 16626 ft 399 kts 58°
2026-05-06 08:08 48.46400 12.48988 17258 ft 403 kts 58°
2026-05-06 08:08 48.47936 12.52541 17890 ft 407 kts 57°
2026-05-06 08:09 48.49492 12.56134 18455 ft 411 kts 57°
2026-05-06 08:09 48.51060 12.59760 18979 ft 416 kts 57°
2026-05-06 08:09 48.52650 12.63435 19497 ft 421 kts 58°
2026-05-06 08:09 48.54257 12.67153 20015 ft 425 kts 58°
2026-05-06 08:10 48.55881 12.70914 20532 ft 430 kts 58°
2026-05-06 08:10 48.57520 12.74715 21048 ft 435 kts 58°
2026-05-06 08:10 48.59178 12.78567 21555 ft 440 kts 58°
2026-05-06 08:10 48.60850 12.82458 22078 ft 444 kts 58°
2026-05-06 08:11 48.62534 12.86394 22578 ft 448 kts 58°
2026-05-06 08:11 48.64229 12.90365 23048 ft 452 kts 58°
2026-05-06 08:11 48.65945 12.94385 23485 ft 457 kts 58°
2026-05-06 08:11 48.67673 12.98435 23861 ft 461 kts 58°
2026-05-06 08:12 48.69419 13.02530 24261 ft 464 kts 58°
2026-05-06 08:12 48.71171 13.06649 24627 ft 467 kts 58°
2026-05-06 08:12 48.72937 13.10811 24990 ft 471 kts 59°
2026-05-06 08:12 48.74719 13.15022 25127 ft 480 kts 59°
2026-05-06 08:13 48.76536 13.19325 25239 ft 489 kts 58°
2026-05-06 08:13 48.78380 13.23696 25368 ft 496 kts 58°
2026-05-06 08:13 48.80253 13.28135 25489 ft 503 kts 58°
2026-05-06 08:13 48.82149 13.32633 25619 ft 509 kts 58°
2026-05-06 08:14 48.84063 13.37183 25734 ft 514 kts 58°
2026-05-06 08:14 48.85991 13.41774 25873 ft 518 kts 58°
2026-05-06 08:14 48.87935 13.46407 25999 ft 521 kts 58°
2026-05-06 08:14 48.89796 13.51146 26155 ft 522 kts 64°
2026-05-06 08:15 48.91267 13.56177 26376 ft 521 kts 70°
2026-05-06 08:15 48.92641 13.61277 26603 ft 521 kts 70°
2026-05-06 08:15 48.94019 13.66361 26866 ft 520 kts 69°
2026-05-06 08:15 48.95398 13.71431 27151 ft 518 kts 69°
2026-05-06 08:16 48.96777 13.76502 27355 ft 519 kts 70°
2026-05-06 08:16 48.98158 13.81598 27519 ft 522 kts 70°
2026-05-06 08:16 48.99538 13.86710 27746 ft 523 kts 70°
2026-05-06 08:16 49.00917 13.91829 27972 ft 523 kts 70°
2026-05-06 08:17 49.02291 13.96959 28225 ft 523 kts 70°
2026-05-06 08:17 49.03662 14.02097 28475 ft 523 kts 70°
2026-05-06 08:17 49.05025 14.07228 28734 ft 522 kts 70°
2026-05-06 08:17 49.06388 14.12363 28999 ft 522 kts 70°
2026-05-06 08:18 49.07753 14.17503 29251 ft 522 kts 70°
2026-05-06 08:18 49.09113 14.22627 29530 ft 522 kts 70°
2026-05-06 08:18 49.10474 14.27756 29810 ft 521 kts 70°
2026-05-06 08:18 49.11834 14.32884 30070 ft 521 kts 70°
2026-05-06 08:19 49.13185 14.38002 30299 ft 520 kts 70°
2026-05-06 08:19 49.14516 14.43068 30516 ft 520 kts 71°
2026-05-06 08:19 49.15862 14.48211 30737 ft 521 kts 71°
2026-05-06 08:19 49.17199 14.53328 30954 ft 520 kts 70°
2026-05-06 08:20 49.18541 14.58464 31198 ft 520 kts 71°
2026-05-06 08:20 49.19880 14.63603 31439 ft 519 kts 71°
2026-05-06 08:20 49.21210 14.68728 31665 ft 519 kts 71°
2026-05-06 08:20 49.22542 14.73861 31908 ft 519 kts 70°
2026-05-06 08:21 49.23873 14.78993 32112 ft 518 kts 70°
2026-05-06 08:21 49.25197 14.84114 32375 ft 518 kts 71°
2026-05-06 08:21 49.26516 14.89243 32618 ft 517 kts 71°
2026-05-06 08:21 49.27831 14.94378 32805 ft 518 kts 71°
2026-05-06 08:22 49.30253 15.04774 32841 ft 519 kts 74°
2026-05-06 08:22 49.32412 15.15319 32846 ft 518 kts 76°
2026-05-06 08:23 49.34530 15.25891 32846 ft 519 kts 75°
2026-05-06 08:23 49.36717 15.36425 32856 ft 518 kts 74°
2026-05-06 08:24 49.38935 15.46922 32860 ft 517 kts 74°
2026-05-06 08:24 49.41137 15.57419 32848 ft 517 kts 75°
2026-05-06 08:25 49.43300 15.67935 32838 ft 516 kts 75°
2026-05-06 08:25 49.45452 15.78464 32833 ft 516 kts 75°
2026-05-06 08:26 49.47600 15.88991 32835 ft 516 kts 75°
2026-05-06 08:26 49.49740 15.99519 32857 ft 515 kts 75°
2026-05-06 08:27 49.51852 16.09958 32857 ft 514 kts 75°
2026-05-06 08:27 49.53969 16.20544 32849 ft 514 kts 75°
2026-05-06 08:28 49.56055 16.30978 32839 ft 513 kts 75°
2026-05-06 08:28 49.58146 16.41479 32810 ft 512 kts 75°
2026-05-06 08:29 49.60224 16.51970 32833 ft 511 kts 75°
2026-05-06 08:29 49.62279 16.62462 32844 ft 511 kts 75°
2026-05-06 08:30 49.64326 16.72936 32840 ft 510 kts 75°
2026-05-06 08:30 49.66363 16.83414 32856 ft 509 kts 76°
2026-05-06 08:31 49.68389 16.93907 32805 ft 510 kts 75°
2026-05-06 08:31 49.70407 17.04408 32827 ft 510 kts 76°
2026-05-06 08:32 49.72079 17.13162 32823 ft 511 kts 76°
2026-05-06 08:32 49.74085 17.23692 32825 ft 511 kts 76°
2026-05-06 08:33 49.76083 17.34250 32822 ft 512 kts 76°
2026-05-06 08:33 49.78072 17.44819 32793 ft 512 kts 76°
2026-05-06 08:34 49.81038 17.60676 32806 ft 511 kts 76°
2026-05-06 08:35 49.83001 17.71252 32810 ft 511 kts 76°
2026-05-06 08:35 49.84956 17.81852 32817 ft 511 kts 76°
2026-05-06 08:36 49.86899 17.92444 32821 ft 511 kts 76°
2026-05-06 08:36 49.88836 18.03063 32823 ft 511 kts 76°
2026-05-06 08:37 49.90758 18.13669 32849 ft 510 kts 76°
2026-05-06 08:37 49.92623 18.24254 32852 ft 506 kts 80°
2026-05-06 08:37 49.93163 18.29624 32598 ft 500 kts 88°
2026-05-06 08:38 49.93252 18.34993 31484 ft 497 kts 96°
2026-05-06 08:38 49.93073 18.40366 30311 ft 500 kts 97°
2026-05-06 08:38 49.92885 18.45755 29020 ft 501 kts 97°
2026-05-06 08:38 49.92700 18.51160 27598 ft 500 kts 96°
2026-05-06 08:39 49.92522 18.56524 26088 ft 496 kts 96°
2026-05-06 08:39 49.92352 18.61820 24830 ft 489 kts 95°
2026-05-06 08:39 49.92186 18.67064 23691 ft 482 kts 95°
2026-05-06 08:39 49.92029 18.72115 23223 ft 454 kts 95°
2026-05-06 08:40 49.91881 18.76837 23005 ft 423 kts 95°
2026-05-06 08:40 49.91734 18.81249 22862 ft 395 kts 96°
2026-05-06 08:40 49.91545 18.85400 22448 ft 378 kts 98°
2026-05-06 08:40 49.91315 18.89414 22190 ft 371 kts 98°
2026-05-06 08:41 49.91065 18.93369 21925 ft 367 kts 99°
2026-05-06 08:41 49.90813 18.97297 21649 ft 365 kts 98°
2026-05-06 08:41 49.90573 19.01195 21391 ft 362 kts 98°
2026-05-06 08:41 49.90343 19.05074 21133 ft 361 kts 98°
2026-05-06 08:42 49.90121 19.08939 20876 ft 359 kts 98°
2026-05-06 08:42 49.89901 19.12799 20622 ft 358 kts 98°
2026-05-06 08:42 49.89683 19.16579 20377 ft 357 kts 98°
2026-05-06 08:42 49.89459 19.20398 20129 ft 355 kts 98°
2026-05-06 08:43 49.89245 19.24208 19811 ft 355 kts 95°
2026-05-06 08:43 49.89381 19.28050 19331 ft 359 kts 82°
2026-05-06 08:43 49.90066 19.31780 18921 ft 360 kts 69°
2026-05-06 08:43 49.91076 19.35350 18449 ft 362 kts 68°
2026-05-06 08:44 49.92075 19.38897 18176 ft 357 kts 68°
2026-05-06 08:44 49.93060 19.42417 17772 ft 355 kts 68°
2026-05-06 08:44 49.94038 19.45932 17364 ft 353 kts 68°
2026-05-06 08:44 49.94901 19.49473 16966 ft 350 kts 76°
2026-05-06 08:45 49.95416 19.53150 16584 ft 347 kts 80°
2026-05-06 08:45 49.95903 19.56804 16159 ft 343 kts 80°
2026-05-06 08:45 49.96389 19.60416 15478 ft 341 kts 79°
2026-05-06 08:45 49.96875 19.63999 14820 ft 338 kts 79°
2026-05-06 08:46 49.97359 19.67556 14195 ft 335 kts 79°
2026-05-06 08:46 49.97837 19.71075 13603 ft 331 kts 79°
2026-05-06 08:46 49.98307 19.74542 13031 ft 326 kts 79°
2026-05-06 08:46 49.98773 19.77974 12584 ft 323 kts 79°
2026-05-06 08:47 49.99235 19.81390 12146 ft 323 kts 79°
2026-05-06 08:47 49.99694 19.84808 11696 ft 324 kts 79°
2026-05-06 08:47 50.00154 19.88229 11369 ft 321 kts 79°
2026-05-06 08:47 50.00612 19.91632 10935 ft 322 kts 79°
2026-05-06 08:48 50.01066 19.94978 10822 ft 311 kts 79°
2026-05-06 08:48 50.01499 19.98161 10674 ft 292 kts 79°
2026-05-06 08:48 50.01910 20.01190 10296 ft 283 kts 79°
2026-05-06 08:48 50.02311 20.04152 9912 ft 278 kts 79°
2026-05-06 08:49 50.02708 20.07088 9634 ft 279 kts 79°
2026-05-06 08:49 50.03103 20.10009 9264 ft 279 kts 79°
2026-05-06 08:49 50.03501 20.12957 8870 ft 279 kts 79°
2026-05-06 08:49 50.03896 20.15881 8607 ft 275 kts 80°
2026-05-06 08:50 50.04291 20.18791 8224 ft 275 kts 79°
2026-05-06 08:50 50.05040 20.21498 7864 ft 274 kts 50°
2026-05-06 08:50 50.06532 20.23237 7499 ft 268 kts 17°
2026-05-06 08:50 50.08326 20.23555 7124 ft 257 kts 347°
2026-05-06 08:51 50.10080 20.23009 6705 ft 258 kts 343°
2026-05-06 08:51 50.11752 20.22001 6065 ft 258 kts 317°
2026-05-06 08:51 50.12808 20.19915 5757 ft 244 kts 288°
2026-05-06 08:51 50.13082 20.17436 5490 ft 223 kts 261°
2026-05-06 08:52 50.12798 20.15108 5225 ft 217 kts 256°
2026-05-06 08:52 50.12487 20.12824 4943 ft 214 kts 256°
2026-05-06 08:52 50.12179 20.10563 4671 ft 212 kts 256°
2026-05-06 08:52 50.11876 20.08327 4389 ft 210 kts 256°
2026-05-06 08:53 50.11573 20.06104 4117 ft 210 kts 256°
2026-05-06 08:53 50.11271 20.03892 3839 ft 207 kts 257°
2026-05-06 08:53 50.10973 20.01712 3567 ft 204 kts 256°
2026-05-06 08:53 50.10678 19.99555 3300 ft 203 kts 257°
2026-05-06 08:54 50.10386 19.97423 3034 ft 198 kts 256°
2026-05-06 08:54 50.10107 19.95383 2802 ft 187 kts 256°
2026-05-06 08:54 50.09846 19.93480 2538 ft 170 kts 255°
2026-05-06 08:54 50.09617 19.91809 2346 ft 148 kts 257°
2026-05-06 08:55 50.09406 19.90283 2144 ft 139 kts 256°
2026-05-06 08:55 50.09203 19.88817 1954 ft 138 kts 256°
2026-05-06 08:55 50.09003 19.87366 1782 ft 135 kts 256°
2026-05-06 08:55 50.08808 19.85955 1598 ft 134 kts 257°
2026-05-06 08:56 50.08611 19.84536 1421 ft 133 kts 257°
2026-05-06 08:56 50.08413 19.83107 1246 ft 133 kts 256°
2026-05-06 08:56 50.08221 19.81703 1061 ft 131 kts 256°
2026-05-06 08:56 50.08033 19.80311 886 ft 132 kts 254°
2026-05-06 08:57 50.07840 19.78970 802 ft 113 kts 257°
2026-05-06 08:57 50.07712 19.78045 798 ft 65 kts 258°
2026-05-06 08:57 50.07637 19.77516 799 ft 41 kts 258°
2026-05-06 08:57 50.07587 19.77137 803 ft 32 kts 258°
2026-05-06 08:58 50.07543 19.76865 802 ft 19 kts 237°
2026-05-06 08:58 50.07430 19.76862 800 ft 19 kts 166°
2026-05-06 08:58 50.07310 19.76919 800 ft 14 kts 115°
2026-05-06 08:58 50.07322 19.77068 800 ft 13 kts 78°
2026-05-06 08:59 50.07341 19.77203 800 ft 12 kts 77°
2026-05-06 08:59 50.07359 19.77326 800 ft 11 kts 77°
2026-05-06 08:59 50.07375 19.77440 800 ft 10 kts 77°
2026-05-06 08:59 50.07390 19.77542 800 ft 9 kts 77°
2026-05-06 09:00 50.07404 19.77645 800 ft 14 kts 79°
2026-05-06 09:00 50.07431 19.77849 800 ft 19 kts 77°
2026-05-06 09:00 50.07458 19.78043 800 ft 18 kts 78°
2026-05-06 09:00 50.07483 19.78224 800 ft 16 kts 77°
2026-05-06 09:01 50.07507 19.78391 800 ft 15 kts 78°
2026-05-06 09:01 50.07529 19.78558 800 ft 17 kts 78°
2026-05-06 09:01 50.07558 19.78762 800 ft 21 kts 77°
2026-05-06 09:01 50.07591 19.78998 800 ft 23 kts 77°
2026-05-06 09:02 50.07626 19.79253 800 ft 25 kts 77°
2026-05-06 09:02 50.07664 19.79524 800 ft 22 kts 76°
2026-05-06 09:02 50.07686 19.79686 800 ft 15 kts 78°
2026-05-06 09:02 50.07700 19.79839 800 ft 14 kts 106°
2026-05-06 09:03 50.07612 19.79900 800 ft 15 kts 167°
2026-05-06 09:03 50.07505 19.79934 800 ft 15 kts 168°
2026-05-06 09:03 50.07409 19.79978 800 ft 11 kts 139°
2026-05-06 09:03 50.07401 19.80057 800 ft 6 kts 89°
2026-05-06 09:04 50.07361 19.80095 800 ft 3 kts 167°
2026-05-06 09:04 50.07336 19.80103 800 ft 2 kts 168°
2026-05-06 09:04 50.07327 19.80106 800 ft 2 kts 168°
2026-05-06 09:04 50.07325 19.80107 800 ft 0 kts 168°